This is the latest recevied weather packets stored in our database for station/object WV8BRW. If no packets are shown the sender has not sent any weather packets the latest 1 day(s).
| Time | Temp. | Humidity | Pressure | Rain* | Wind** | Luminosity | Snow |
|---|---|---|---|---|---|---|---|
| 1778037230 | 15.56° C | 90% | 1006.6 hPa | 0 mm | 0 m/s | 0 W/m² | - |
| 1778036928 | 16.11° C | 86% | 1006.3 hPa | 0 mm | 0 m/s | 0 W/m² | - |
| 1778036626 | 16.11° C | 85% | 1006.4 hPa | 0 mm | 0 m/s | 0 W/m² | - |
| 1778036322 | 16.67° C | 82% | 1006.4 hPa | 0 mm | 0.45 m/s, 332° | 0 W/m² | - |
| 1778036019 | 16.67° C | 79% | 1006.6 hPa | 0 mm | 0 m/s | 0 W/m² | - |
| 1778035716 | 17.22° C | 76% | 1006.6 hPa | 0 mm | 0.89 m/s, 337° | 0 W/m² | - |
| 1778035413 | 16.67° C | 76% | 1006.7 hPa | 0 mm | 0.89 m/s, 346° | 0 W/m² | - |
| 1778035109 | 17.22° C | 78% | 1006.7 hPa | 0 mm | 0.45 m/s, 337° | 0 W/m² | - |
| 1778034806 | 17.22° C | 77% | 1006.9 hPa | 0 mm | 0.45 m/s, 343° | 0 W/m² | - |
| 1778034502 | 17.22° C | 78% | 1006.7 hPa | 0 mm | 0.89 m/s, 343° | 0 W/m² | - |
| 1778034200 | 17.22° C | 77% | 1006.7 hPa | 0 mm | 0.45 m/s, 332° | 0 W/m² | - |
| 1778033899 | 17.78° C | 74% | 1006.6 hPa | 0 mm | 0.89 m/s, 349° | 0 W/m² | - |
| 1778033595 | 17.22° C | 74% | 1006.7 hPa | 0 mm | 0.89 m/s, 345° | 0 W/m² | - |
| 1778033291 | 17.22° C | 74% | 1006.8 hPa | 0 mm | 0.45 m/s, 342° | 0 W/m² | - |
| 1778032989 | 17.22° C | 78% | 1006.8 hPa | 0 mm | 0 m/s | 0 W/m² | - |
| 1778032687 | 17.22° C | 77% | 1006.8 hPa | 0 mm | 0 m/s | 0 W/m² | - |
| 1778032384 | 17.78° C | 75% | 1006.7 hPa | 0 mm | 0 m/s | 0 W/m² | - |
| 1778032081 | 17.78° C | 73% | 1006.3 hPa | 0 mm | 0 m/s | 0 W/m² | - |
| 1778031778 | 17.78° C | 73% | 1006.4 hPa | 0 mm | 0.45 m/s, 336° | 0 W/m² | - |
| 1778031474 | 17.78° C | 74% | 1006.4 hPa | 0 mm | 0 m/s | 0 W/m² | - |
| 1778031172 | 17.78° C | 72% | 1006.5 hPa | 0 mm | 0 m/s | 0 W/m² | - |
| 1778030868 | 17.78° C | 72% | 1006.3 hPa | 0 mm | 0.45 m/s, 336° | 0 W/m² | - |
| 1778030565 | 17.78° C | 71% | 1006.7 hPa | 0 mm | 0 m/s | 0 W/m² | - |
| 1778030263 | 17.78° C | 72% | 1006.5 hPa | 0 mm | 0.45 m/s, 336° | 0 W/m² | - |
| 1778029958 | 18.33° C | 72% | 1006.4 hPa | 0 mm | 0.45 m/s, 335° | 0 W/m² | - |
* Rain latest hour (hover to see other rain measurements)
** Current wind speed in m/s (hover to see current wind gust speed)